Voltar ao catálogo

STARLINK-37942

AtivoComunicaçõesVLEO
NORAD 100280·PAYLOAD·🇺🇸 United States

Lançado Aug 11, 2026 de Cape Canaveral Space Force Station

Loading…

Próximas Passagens (próximas 24 horas)

TLE

EnvelhecendoSource: Space-Track

Época: Sep 13, 2026, 11:53 UTC

1 A0280U 26183J   26256.49533694 -.00498621  00000-0 -35909-2 0  9994
2 A0280  53.1588 291.9032 0002011  55.3419 304.7790 15.74277222  5205

Acompanhe STARLINK-37942 em tempo real com AllMySat

Download on the App Store